sat.trackr.live / text

‹ back to catalog

STARLINK-36935

NORAD 68032 · 2026-040T

PAYLOAD ACTIVE UNKNOWN

§ Identity

Operator
Country
US
Launch date
2026-03-01
Launch site
AFWTR
Launch vehicle
Mass (kg)
RCS (m²)

Purposes: comms

External: N2YO · Heavens-Above · Gunter

§ Orbital elements

Epoch: 2026-09-19T15:56:01.169952Z

Period
93.90 min
Inclination
97.2846°
Eccentricity
0.0001403
Mean motion
15.33471685 rev/d
Perigee alt
464.5 km
Apogee alt
466.4 km
Semi-major
6,843.6 km
B*
8.1926e-4
RAAN
210.0768°
Arg perigee
112.8908°
Mean anomaly
247.2483°
Rev number
3,119

§ Raw data

STARLINK-369351 68032U 26040T   26262.66390243  .00026489  00000+0  81926-3 0  99992 68032  97.2846 210.0768 0001403 112.8908 247.2483 15.33471685 31195

JSON: /api/v1/satellites/68032 · /tle

For live sub-satellite position, see the globe view (requires WebGL).

§ Visibility from observer

Set your observer location to see the next 7 days of passes ≥ 10°. The values pass through the URL so the page stays shareable.

No JS? Fill the form by hand. The geolocation button needs JavaScript.